Date,TemperatureHighF,TemperatureAvgF,TemperatureLowF,DewpointHighF,DewpointAvgF,DewpointLowF,HumidityHigh,HumidityAvg,HumidityLow,PressureMaxIn,PressureMinIn,WindSpeedMaxMPH,WindSpeedAvgMPH,GustSpeedMaxMPH,PrecipitationSumIn
2013-1-11,61,57,49,50,46,43,100,67,61,28.94,28.82,17,11,20,0.00
2013-1-12,59,33,23,46,29,21,100,85,61,29.29,28.94,11,6,13,0.00
2013-1-13,26,18,11,24,18,11,100,97,91,29.56,29.26,10,4,11,0.00
2013-1-14,23,13,8,22,12,8,100,99,97,29.74,29.56,8,1,8,0.00
2013-1-19,62,51,41,48,42,37,85,74,61,29.50,29.26,11,4,15,0.00
2013-1-20,41,30,22,37,27,21,97,88,79,29.65,29.50,10,3,12,0.00
2013-1-21,26,19,12,24,18,12,100,97,91,29.71,29.65,10,3,11,0.00
2013-1-22,31,20,12,27,19,12,100,95,85,29.71,29.56,9,3,9,0.00
2013-1-23,47,22,11,41,20,11,100,95,79,29.59,29.50,6,1,9,0.00
2013-4-14,76,69,58,61,53,46,100,59,43,30.74,30.53,28,10,28,0.16
2013-4-15,60,50,44,50,44,40,100,80,61,31.01,30.71,12,4,13,0.28
2013-4-16,47,44,40,41,40,37,100,83,79,31.01,31.01,16,8,18,0.04
2013-4-17,76,54,46,64,52,40,100,94,55,31.01,30.65,11,5,13,0.64
2013-4-18,51,43,38,51,42,35,100,94,85,30.95,30.53,15,6,19,1.04
2013-4-19,55,42,33,45,37,28,97,80,67,31.01,30.92,14,6,18,0.00
2013-4-20,59,46,29,46,39,25,91,75,61,31.01,31.01,9,4,11,0.00
2013-4-21,68,57,45,49,44,39,79,64,49,31.01,31.01,19,7,23,0.00
2013-4-22,71,59,48,51,46,40,73,62,49,31.01,30.95,13,5,15,0.00
2013-4-23,56,39,35,51,38,35,100,97,67,31.01,31.01,15,7,20,0.44
2013-4-24,55,43,30,46,38,30,100,85,67,31.01,31.01,15,3,15,0.00
2013-4-25,69,52,34,49,41,33,97,71,49,31.01,31.01,11,3,13,0.00
2013-4-28,71,66,59,51,48,45,61,54,49,30.95,30.86,10,6,12,0.00
2013-4-29,82,69,55,61,52,44,67,55,43,30.89,30.74,16,9,18,0.00
2013-4-30,82,72,63,61,53,47,55,51,43,30.92,30.74,20,9,22,0.00
2013-5-1,87,71,52,62,53,42,73,54,43,31.01,30.92,13,6,15,0.00
2013-5-2,50,41,33,42,38,33,100,88,73,31.01,31.01,13,6,19,0.12
2013-5-3,35,33,33,35,33,33,100,100,100,31.01,31.01,7,1,9,0.00
2013-5-4,50,46,41,43,40,38,100,80,73,31.01,30.98,8,2,8,0.00
2013-5-5,69,53,44,53,47,39,100,82,49,31.01,31.01,9,2,11,0.00
2013-5-6,77,60,50,54,50,44,100,75,37,31.01,31.01,8,2,11,0.00
2013-5-7,88,67,50,66,54,45,100,67,37,31.01,31.01,5,0,8,0.00
2013-5-8,73,64,57,62,48,44,100,58,43,31.01,30.98,13,4,17,0.04
2013-5-9,84,66,59,65,59,48,100,84,43,31.01,30.92,10,2,11,0.36
2013-5-10,68,58,53,60,51,-100,100,84,49,31.01,30.98,9,2,10,0.00
2013-5-11,72,58,47,61,47,-100,100,72,43,31.01,31.01,17,3,17,0.00
2013-5-12,74,56,36,51,44,34,91,66,43,31.01,31.01,8,1,9,0.00
2013-5-13,78,64,46,61,48,40,97,59,37,31.01,31.01,14,5,14,0.00
2013-5-14,91,76,61,63,54,47,61,48,37,31.01,30.95,22,9,22,0.00
2013-5-15,86,75,65,61,55,46,67,50,43,31.01,30.95,15,9,17,0.00
2013-5-16,84,65,61,72,34,-100,100,69,43,31.01,30.92,12,4,15,0.00
2013-5-17,65,61,57,65,61,57,100,100,100,31.01,30.95,6,2,6,0.00
2013-5-18,79,76,75,61,59,58,55,55,49,30.95,30.89,13,5,16,0.00
2013-5-19,86,73,60,73,60,46,100,67,43,30.98,30.74,17,7,28,1.12
2013-5-20,77,66,59,70,61,56,100,88,55,30.92,30.77,18,8,19,2.50
2013-5-21,71,65,58,64,55,47,100,73,49,30.92,30.80,13,4,14,0.00
2013-5-24,62,60,60,48,47,47,61,61,61,31.01,31.01,8,2,8,0.00
2013-5-25,81,69,58,61,53,45,67,56,43,31.01,31.01,15,7,17,0.20
2013-5-28,73,71,70,72,69,64,100,94,73,31.01,30.95,6,2,6,0.04
2013-5-29,83,76,66,71,61,56,100,63,43,31.01,30.92,22,10,23,0.00
2013-5-30,73,65,62,70,63,56,100,95,61,31.01,30.89,18,10,26,1.00
2013-5-31,65,62,59,65,62,59,100,100,100,31.01,30.98,12,4,12,1.56
2013-6-13,89,79,62,62,59,48,67,51,37,17.72,17.72,8,1,11,0.00
2013-6-14,79,68,64,71,65,58,100,91,49,0.00,40.00,9,1,9,0.00
2013-6-15,83,71,67,78,68,57,100,92,43,17.72,17.72,11,6,13,0.72
2013-6-16,89,71,66,76,70,58,100,96,37,17.72,17.72,8,2,10,0.00
2013-6-17,76,69,65,75,69,59,100,99,55,17.72,17.72,13,2,17,1.00
2013-6-18,89,72,63,71,64,58,100,81,37,17.72,17.72,9,1,9,0.00
2013-6-19,88,75,63,70,63,59,100,71,43,17.72,17.72,10,2,13,0.00
2013-6-20,81,71,68,73,67,59,100,88,49,0.00,40.00,8,4,10,0.00
2013-6-23,78,76,74,75,68,65,100,79,67,17.72,17.72,11,6,13,0.00
2013-6-24,75,75,74,75,71,66,100,89,73,17.72,17.72,10,7,11,0.00
2013-7-1,85,72,60,61,53,46,79,54,43,17.72,17.72,9,2,11,0.00
2013-7-2,85,69,58,61,53,46,79,57,43,17.72,17.72,6,1,8,0.00
2013-7-3,90,73,61,61,55,47,73,57,37,17.72,17.72,11,3,15,0.00
2013-7-4,88,74,56,62,58,48,100,62,37,17.72,17.72,10,3,11,0.00
2013-7-5,92,79,63,63,58,53,73,51,31,17.72,17.72,11,6,13,0.00
2013-7-6,91,77,67,66,60,56,97,57,37,17.72,17.72,14,7,15,0.00
2013-7-7,90,80,69,68,60,57,97,52,37,17.72,17.72,15,7,18,0.00
2013-7-28,69,68,68,49,48,48,49,49,49,29.15,29.12,3,1,4,0.00
2013-7-29,69,64,62,69,61,49,100,89,55,29.18,29.15,5,0,6,0.16
2013-8-1,88,84,77,62,60,58,55,46,37,29.12,29.09,6,2,8,0.00
2013-8-2,84,74,70,78,72,63,100,96,61,29.06,28.97,11,3,16,0.20
2013-8-3,75,73,70,75,73,70,100,100,100,29.18,29.00,5,1,10,0.00
2013-8-4,73,70,67,73,69,56,100,96,61,29.23,29.15,6,0,6,0.52
2013-8-5,84,74,70,79,73,66,100,97,55,29.15,28.94,10,2,10,0.00
2013-8-6,83,76,70,80,74,66,100,95,61,29.00,28.91,13,3,17,0.28
2013-8-7,85,76,70,80,74,66,100,96,55,29.03,28.88,12,2,23,0.28
2013-8-8,79,72,67,75,70,60,100,95,55,29.09,29.00,6,1,8,0.00
2013-8-9,76,71,66,76,71,66,100,100,100,29.18,29.06,6,0,6,0.00
2013-8-10,87,77,67,67,60,56,100,58,43,29.23,29.18,6,1,8,0.00
2013-8-11,90,70,59,71,63,59,100,82,37,29.21,29.15,9,1,10,0.00
2013-8-21,91,76,66,74,66,61,100,79,37,29.18,29.12,10,5,11,0.00
2013-8-22,91,74,69,75,70,61,100,90,37,29.18,29.12,6,3,6,0.00
2013-8-23,89,75,68,75,68,59,100,85,37,29.18,29.12,9,1,9,0.00
2013-8-24,82,74,72,75,70,59,100,90,49,29.21,29.15,6,2,6,0.00
2013-8-25,87,72,68,72,68,59,100,89,43,29.29,29.21,8,4,9,0.00
2013-8-26,76,73,71,74,71,63,100,94,67,29.23,29.21,6,5,8,0.00
2013-8-27,90,74,69,74,70,60,100,90,37,29.15,29.12,6,5,14,0.00
2013-9-4,88,71,57,63,58,52,100,68,37,29.23,29.12,4,0,6,0.00
2013-9-5,87,76,59,65,59,53,100,59,43,29.26,29.18,8,2,10,0.00
2013-9-6,91,77,61,67,60,56,100,60,37,29.21,29.06,10,3,11,0.00
2013-9-7,94,72,66,68,56,-100,100,63,31,29.09,28.97,12,6,13,0.00
2013-9-8,97,81,73,62,60,59,61,50,31,29.00,28.94,9,6,13,0.00
2013-9-9,96,88,73,63,60,58,61,40,31,29.03,28.97,15,8,19,0.00
2013-9-10,95,82,69,69,61,57,97,53,31,29.15,29.03,15,7,19,0.00
2013-9-13,70,63,60,50,48,47,61,57,49,29.15,29.12,0,0,0,2.64
2013-9-14,76,60,48,51,43,-100,85,57,37,29.18,29.03,9,2,11,0.00
2013-9-15,84,68,62,68,54,47,100,63,43,29.18,29.03,9,5,12,0.04
2013-9-16,65,61,60,65,61,60,100,100,100,29.32,29.21,6,2,9,0.08
2013-9-17,70,65,61,70,65,61,100,100,100,29.26,29.06,9,3,13,0.92
2013-9-18,75,69,67,75,69,67,100,99,85,29.09,28.97,11,7,11,0.00
2013-9-19,91,81,72,75,65,58,100,65,37,29.00,28.85,18,10,22,0.00
2013-9-21,72,62,57,52,42,-100,67,53,49,29.12,29.00,4,1,6,0.00
2013-9-22,75,62,52,56,50,43,100,67,43,29.06,28.97,10,2,11,0.20
2013-9-23,76,64,52,59,51,47,100,69,37,29.03,28.91,11,3,13,0.12
2013-9-24,76,65,58,66,55,47,100,74,43,28.94,28.88,13,4,15,0.00
2013-9-25,73,64,57,69,61,56,100,92,55,28.97,28.91,5,1,8,0.00
2013-9-26,85,70,59,68,60,56,100,73,43,29.00,28.94,12,4,15,0.04
2013-9-27,87,74,65,68,62,56,100,70,43,29.06,28.97,13,7,15,0.04
2013-9-28,72,69,66,69,62,56,100,79,61,29.00,28.91,15,10,17,0.40
2013-9-30,75,64,48,69,61,48,100,91,55,29.00,28.94,11,5,11,0.00
2013-10-1,80,72,67,67,60,56,100,67,49,29.09,29.06,2,0,2,0.00
2013-10-2,81,70,62,76,68,60,100,94,49,29.09,29.00,11,3,11,0.00
2013-10-3,81,72,68,77,69,61,100,90,55,29.00,28.91,12,8,12,0.00
2013-10-4,87,77,69,76,66,59,100,74,43,29.00,28.88,19,9,19,0.00
2013-10-5,74,56,47,69,50,41,100,80,61,29.09,29.00,8,2,8,0.16
2013-10-6,61,51,41,47,44,39,100,78,61,29.06,28.91,8,3,8,0.04
2013-10-7,69,53,41,49,45,41,100,78,49,29.18,29.03,5,1,5,0.00
2013-10-8,75,60,48,53,49,45,100,71,43,29.18,29.12,15,6,15,0.00
2013-10-9,75,60,49,58,51,46,100,76,43,29.18,29.12,11,4,11,0.00
2013-10-10,79,64,51,61,53,47,100,72,37,29.15,29.00,11,5,11,0.00
2013-10-11,77,68,58,68,60,52,100,77,55,29.00,28.88,18,10,18,0.00
2013-10-12,73,59,51,68,49,-100,100,75,43,29.29,28.94,8,2,8,0.12
2013-10-13,66,51,44,49,43,39,85,73,55,29.44,29.29,5,0,5,0.00
2013-10-14,68,58,50,62,48,42,100,73,49,29.38,29.00,15,5,15,0.00
2013-10-15,64,56,43,62,51,39,100,84,55,29.15,28.94,13,4,13,0.20
2013-10-16,59,48,38,49,43,38,100,86,61,29.15,29.03,5,0,5,0.04
2013-10-17,66,53,42,51,47,42,100,81,55,29.09,28.97,11,3,11,0.04
2013-10-18,55,42,38,45,41,38,100,94,67,29.21,29.06,8,1,8,0.16
2013-10-19,59,44,35,46,38,-100,100,85,61,29.15,29.00,15,5,15,0.08
2013-10-20,50,49,49,42,41,41,73,73,73,29.00,29.00,11,11,11,0.00
2013-10-23,50,44,30,42,39,30,100,84,73,29.23,29.12,6,1,6,0.00
2013-10-24,44,38,33,40,35,29,100,90,79,29.47,29.21,8,1,8,0.00
2013-10-25,46,35,27,40,33,27,100,93,79,29.53,29.50,9,6,9,0.00
2013-10-26,61,44,41,47,37,-100,85,79,61,29.23,29.15,9,5,9,0.00
2013-10-27,44,34,29,40,32,28,100,93,79,29.23,29.18,6,0,6,0.00
2013-10-28,62,48,37,54,43,-100,100,87,61,29.21,29.06,8,3,8,0.00
2013-10-29,64,57,50,64,57,50,100,100,100,29.21,29.00,9,3,9,0.84
2013-10-30,69,66,63,69,66,63,100,100,100,29.06,28.85,20,9,21,0.64
2013-10-31,63,62,62,63,62,62,100,100,100,28.85,28.70,15,8,15,0.76
2013-11-1,62,49,40,48,43,40,100,80,55,29.03,28.76,11,2,11,0.08
2013-11-2,45,43,40,45,43,40,100,99,97,29.18,29.00,7,2,10,0.00
2013-11-5,60,58,53,60,58,53,100,100,100,29.18,28.91,16,10,17,9.18
2013-11-6,59,42,32,59,41,32,100,96,79,29.38,28.94,11,4,17,0.64
2013-11-7,58,36,30,45,34,30,100,94,61,29.41,29.38,17,1,17,0.00
2013-11-8,62,44,34,47,39,33,97,82,55,29.38,29.03,15,6,19,0.00
2013-11-9,52,47,44,44,42,38,97,81,73,29.15,29.06,11,5,13,0.00
2013-11-10,50,49,48,42,41,40,73,73,73,29.32,29.32,0,0,0,0.00
2013-11-11,67,49,29,52,41,25,100,76,49,29.62,29.21,15,6,16,0.00
2013-11-12,29,22,18,25,21,17,100,94,85,29.85,29.62,15,5,15,0.00
2013-11-13,36,24,20,30,22,19,97,94,79,29.71,29.26,11,4,11,0.00
2013-11-17,68,63,42,68,58,38,100,87,55,29.12,28.47,23,12,23,0.00
2013-11-18,52,40,34,44,37,34,100,91,73,29.35,29.12,5,1,8,0.00
2013-11-19,48,38,36,40,35,34,91,90,73,29.29,29.29,6,1,10,0.00
2013-11-20,49,44,38,42,40,37,100,86,73,29.06,28.97,11,2,12,0.28
2013-11-21,52,45,31,49,43,31,100,92,73,29.38,29.03,15,4,15,0.44
2013-11-22,33,29,26,32,29,26,100,99,97,29.65,29.41,0,0,0,0.04
2013-11-23,26,24,19,26,24,18,100,96,91,29.80,29.62,3,0,6,0.00
2013-11-24,27,23,19,23,20,18,97,91,85,29.74,29.41,8,4,8,0.00
2013-11-25,38,30,26,30,26,24,100,85,73,29.29,29.23,6,1,9,0.00
2013-11-26,38,28,23,35,27,21,100,95,73,29.41,29.18,10,4,17,0.00
2013-11-27,27,16,13,23,16,13,100,99,85,29.47,29.26,11,3,12,0.00
2013-11-28,37,28,25,31,25,23,91,87,79,29.53,29.21,11,3,13,0.00
2013-11-29,41,27,21,37,25,21,100,92,79,29.53,29.32,5,2,8,0.00
2013-12-2,49,42,34,49,42,34,100,100,100,28.94,28.67,10,5,13,0.00
2013-12-3,59,47,39,54,45,39,100,94,61,28.70,28.61,10,4,13,0.00
2013-12-4,52,42,24,52,42,24,100,100,100,29.03,28.59,11,6,15,0.00
2013-12-5,25,22,19,25,21,18,100,96,91,29.26,29.06,13,7,13,0.00
2013-12-7,11,7,5,11,4,-100,100,96,100,29.71,29.47,9,5,11,0.00
2013-12-8,25,22,18,25,22,18,100,100,97,29.23,29.03,8,3,9,0.04
2013-12-9,18,15,14,18,15,14,100,100,100,29.32,29.18,0,0,4,0.00
2013-12-14,26,22,20,26,16,-100,100,93,100,29.23,29.23,0,0,0,0.04
2013-12-15,44,32,18,40,30,18,100,92,85,29.23,29.03,6,2,6,0.04
2013-12-16,49,37,31,41,35,30,100,92,73,29.18,29.03,6,2,7,0.04
2013-12-17,40,30,25,36,28,24,100,93,79,29.29,29.18,5,0,5,0.00
2013-12-18,58,39,28,45,34,24,100,84,61,29.26,28.88,17,8,19,0.00
2013-12-19,58,53,48,50,44,40,79,71,61,28.88,28.73,15,9,17,0.00